Dewpoint
65 65 65 65 65 65 65 66 66 66 66 66 66 66 66 66 66 67 67 67 67 67 67 67 67 67 66 66 66 65 65 65 65 65 66 67 67 67 67 67 66 66 65 65 65 65 65 64 60 56 55 55 55 55 55 57 57 57 56 57 57 57 58 62 64 65 65 66 66 66 67 67 67 67 66 66 66 66 66 67 67 68 68 68 68 69 70 70 70 70 70 69 70 70 70 69 69 69 69 68 68 68 68
65 65 65 65 65 65 66 66 66 67 67 66 66 66 66 67 67 67 67 67 67 67 67 67 66 66 66 65 65 65 64 64 65 65 66 67 67 67 67 66 66 65 65 64 64 65 65 63 58 55 55 55 56 56 56 56 56 56 55 55 56 56 58 62 63 64 65 65 65 66 66 66 66 66 65 65 65 65 65 65 66 67 68 68 68 68 68 69 69 69 69 69 69 69 69 70 69 69 69 68 68 68 68
65 65 65 65 65 66 66 67 67 67 67 67 66 66 66 67 67 67 67 67 67 66 66 66 65 65 65 65 64 64 64 64 64 65 66 67 67 67 66 66 65 65 65 64 65 65 65 63 59 55 55 55 55 55 55 55 55 55 55 55 55 57 60 62 63 63 64 64 65 65 65 65 65 64 64 64 64 64 64 64 65 66 67 67 67 68 68 68 68 68 68 68 68 68 69 69 69 69 68 68 68 68 68
66 66 66 66 66 67 67 67 68 68 68 68 67 67 67 67 67 67 67 66 66 66 65 65 65 64 64 64 64 64 64 64 64 65 66 67 67 66 66 65 65 64 64 64 65 65 63 60 59 56 55 55 55 55 54 55 54 54 54 54 55 58 62 62 62 62 63 64 64 64 64 64 64 64 64 64 64 64 64 64 64 65 67 67 67 67 67 67 67 67 68 68 68 68 68 68 68 68 68 67 67 67 67
67 67 67 67 67 67 67 68 68 68 68 68 68 68 67 67 67 67 66 65 65 65 64 64 64 64 63 63 63 63 63 64 64 65 66 67 66 66 65 65 64 64 64 64 64 64 61 60 59 57 55 55 54 53 53 54 54 53 53 53 55 58 62 62 62 62 63 63 64 64 64 64 64 64 64 64 64 64 63 63 64 65 66 67 67 67 66 66 66 66 67 67 67 67 67 67 67 67 66 66 66 66 66
67 67 67 67 67 67 67 68 68 68 68 68 68 68 68 67 67 66 65 65 64 64 64 64 63 63 62 62 62 62 63 63 64 65 66 66 66 66 65 64 64 64 63 63 64 63 61 58 56 55 55 54 53 52 52 53 53 52 52 52 55 58 62 61 61 62 62 63 63 64 64 64 64 64 64 64 64 64 63 64 64 65 66 66 66 66 66 65 65 65 65 66 66 66 66 66 66 65 65 65 65 65 65
67 67 67 67 67 67 67 67 68 68 68 68 68 68 67 67 66 65 65 64 64 64 63 63 62 61 61 61 61 62 62 63 64 65 66 66 66 65 64 64 63 62 62 62 63 63 62 57 55 55 54 53 53 52 52 52 52 51 51 51 55 60 62 61 61 62 63 63 63 63 63 63 63 64 64 64 64 64 65 65 65 66 67 66 66 66 65 65 65 65 65 65 65 65 65 65 64 64 64 64 64 64 64
67 67 67 67 67 67 67 67 67 67 68 68 68 68 67 66 65 65 64 64 64 63 63 62 61 61 60 60 61 62 63 64 65 66 66 66 65 64 63 62 61 61 61 62 62 63 63 58 55 55 54 54 53 52 52 51 50 50 50 52 56 60 61 62 61 61 62 63 63 63 63 63 64 64 65 65 66 66 66 66 66 67 67 66 65 65 65 64 64 64 64 64 64 64 64 64 64 64 64 64 64 63 63
67 67 67 67 67 67 67 67 67 67 68 68 68 68 67 66 65 64 64 64 64 63 63 62 61 60 60 61 61 62 63 64 65 66 65 64 64 63 61 61 60 60 60 61 62 62 63 59 56 55 54 53 52 51 51 49 48 49 51 52 56 60 62 62 62 62 62 63 63 63 64 64 64 65 66 67 67 68 68 67 67 66 66 65 65 64 64 64 64 64 64 64 64 64 64 64 64 63 63 63 63 63 63
67 67 67 67 67 67 67 67 67 68 68 68 68 67 66 65 65 64 64 64 64 63 62 61 60 60 60 61 62 63 64 65 65 65 64 63 62 61 60 60 60 60 60 61 61 62 62 59 55 54 53 51 50 50 51 49 48 50 52 55 59 62 63 63 62 62 63 63 64 64 64 65 66 66 67 67 68 68 68 67 66 65 65 64 64 64 64 64 64 64 63 63 63 63 63 63 63 63 63 63 62 62 62
67 67 67 67 67 68 68 68 68 68 68 68 67 67 66 65 65 64 64 64 64 63 62 60 60 59 60 62 63 64 64 65 65 64 63 62 61 60 60 59 59 60 60 60 60 61 62 58 54 52 51 50 50 50 49 49 49 51 54 58 61 63 63 63 63 63 64 64 64 64 65 65 66 66 66 67 67 67 66 65 65 64 64 64 63 63 63 63 63 63 63 63 63 63 62 62 62 62 62 62 62 62 61
67 67 67 67 68 68 68 68 68 68 68 68 67 66 65 65 65 64 64 64 64 63 61 60 59 59 61 62 63 64 64 65 64 64 63 61 61 60 60 59 59 59 59 59 60 60 60 55 51 49 48 48 48 49 48 48 50 52 54 59 62 63 63 63 63 63 64 65 65 65 65 66 66 66 65 65 65 65 64 64 63 63 63 63 62 62 62 62 62 62 62 62 62 62 62 61 61 61 61 61 61 61 61
67 67 67 67 68 68 68 68 68 68 68 68 67 66 65 65 65 64 64 64 63 62 61 59 59 59 61 62 63 64 64 64 64 64 62 61 60 60 59 59 59 59 59 59 59 59 55 50 47 46 46 46 47 47 47 48 50 54 55 61 63 64 64 64 64 64 65 65 65 65 65 65 65 64 64 64 64 63 63 62 62 62 62 62 61 61 61 61 61 61 61 61 60 60 60 60 60 60 60 60 60 60 60
68 67 67 67 68 68 68 68 68 68 67 67 66 66 65 65 65 64 64 64 63 62 60 59 59 59 61 62 63 63 64 64 64 63 62 61 60 60 59 59 59 59 59 59 56 52 48 46 45 44 44 45 46 47 49 49 52 56 59 62 64 64 64 64 65 65 66 66 65 65 65 64 64 64 63 63 62 62 61 61 61 61 61 61 60 60 60 60 60 60 60 60 59 59 59 59 59 59 59 59 59 59 59
67 66 67 68 68 68 68 68 68 67 67 66 66 66 65 65 65 64 64 64 63 61 60 59 59 59 60 61 62 63 63 63 63 63 62 61 60 59 59 59 58 58 59 56 51 47 44 44 44 44 44 45 45 46 49 51 54 58 62 63 64 64 65 65 66 66 66 66 66 65 64 64 63 63 62 62 61 61 61 60 60 60 60 59 59 59 59 59 59 59 59 59 59 59 59 59 59 59 59 59 59 59 59
65 65 67 68 68 68 68 68 67 67 66 66 66 65 65 65 65 64 64 64 63 61 59 58 58 59 60 61 62 62 62 63 63 62 61 61 60 59 58 58 58 57 55 51 47 43 42 42 43 44 45 45 46 47 50 52 56 60 64 64 65 65 66 67 67 66 66 66 65 64 64 63 62 62 61 61 60 60 60 59 59 59 59 59 59 58 58 58 58 58 58 58 58 58 58 58 58 58 58 58 58 58 58
64 65 67 68 68 68 68 68 67 67 66 66 65 65 65 65 65 65 64 64 63 61 59 58 58 59 59 60 61 60 58 59 59 60 61 60 59 59 58 58 57 55 51 47 44 42 41 42 42 43 44 45 46 49 52 54 59 63 65 65 65 66 67 67 66 66 65 65 64 64 63 62 61 61 61 60 60 59 59 59 59 58 58 58 58 57 57 57 57 57 57 57 57 57 57 57 57 57 57 57 57 57 57
65 66 68 68 68 68 68 68 68 67 66 66 65 65 65 65 65 65 64 64 63 61 60 59 58 58 59 60 59 57 52 52 53 55 58 59 59 58 58 57 55 52 48 44 42 41 41 41 41 42 44 46 48 50 54 56 61 65 66 66 66 67 67 66 65 64 64 64 63 62 62 61 61 60 60 59 59 59 59 58 58 58 57 57 57 56 56 56 56 55 56 56 56 56 56 56 56 56 56 56 56 57 57
65 66 67 68 68 68 68 68 68 67 67 66 66 65 65 65 65 65 64 64 63 61 60 59 59 58 58 59 56 52 49 48 48 49 50 52 55 56 56 52 49 46 43 41 41 41 41 41 41 42 44 46 49 52 56 59 63 66 66 67 67 67 66 65 64 64 63 63 62 61 61 60 60 59 59 59 58 58 57 57 57 57 56 56 56 55 55 55 55 55 55 55 55 55 56 56 56 56 56 56 56 56 56
65 66 67 67 68 68 68 68 68 68 67 66 66 65 65 65 65 65 64 64 63 61 60 59 58 57 57 54 50 46 45 45 46 46 45 46 47 49 50 46 43 41 40 40 39 40 40 41 41 43 45 48 50 54 57 61 64 67 67 67 67 66 65 64 64 63 62 62 61 60 60 59 59 58 58 57 57 56 56 56 56 55 55 55 55 55 55 54 54 54 54 54 55 55 55 55 55 55 55 55 56 56 56
64 64 65 66 67 67 67 67 67 67 67 67 65 64 64 64 64 64 64 63 62 61 60 59 55 52 51 48 45 43 42 42 42 42 43 42 42 43 44 42 41 40 40 39 39 40 40 41 42 43 45 49 51 55 58 62 64 67 67 67 67 66 65 64 63 62 61 61 60 59 59 58 58 57 56 56 55 55 55 55 55 55 55 55 55 54 54 53 53 53 53 53 54 55 55 55 55 55 55 55 55 55 55
61 61 62 63 64 64 64 64 65 65 65 66 65 63 62 63 63 63 63 61 60 59 59 56 53 49 47 46 44 42 41 40 40 40 41 41 41 41 41 41 40 40 39 39 40 40 41 41 42 44 46 49 52 55 59 63 65 66 67 67 66 65 64 63 62 61 61 60 59 59 58 57 56 56 55 55 55 54 54 53 53 53 54 54 54 54 53 53 53 53 53 53 53 54 55 55 55 55 55 55 55 55 55
59 59 60 60 61 61 61 61 62 62 63 64 64 62 60 60 61 60 60 58 57 56 56 54 51 49 47 46 44 42 41 40 40 40 40 41 41 40 39 39 39 39 39 39 40 40 41 41 43 44 47 50 53 55 58 62 64 65 66 65 64 64 63 62 61 60 59 59 58 57 57 56 55 55 54 54 53 53 53 52 52 53 53 53 53 53 53 52 52 52 52 53 53 54 54 55 55 55 55 55 55 55 55
58 58 59 59 59 59 59 59 59 60 61 63 63 61 59 59 59 58 57 55 54 53 53 51 49 48 46 45 43 42 41 40 41 41 40 39 39 38 37 37 37 38 38 39 39 40 41 41 43 45 47 51 53 55 57 60 62 64 65 64 63 62 61 61 60 59 59 58 57 56 55 55 54 54 53 53 52 52 52 52 52 52 52 53 53 53 52 52 52 52 52 53 53 53 54 54 55 55 55 55 55 55 54
58 58 58 58 59 59 58 58 59 59 60 61 61 60 59 58 57 56 55 54 52 51 50 49 47 46 46 44 42 41 40 40 41 41 41 39 37 36 36 36 37 37 38 39 39 40 40 41 42 45 47 50 53 55 56 59 61 63 63 63 62 61 60 60 59 59 58 57 56 55 55 54 54 53 53 52 52 52 52 52 52 52 52 52 53 52 52 52 52 52 52 53 53 53 54 54 54 54 54 54 54 54 54
58 57 57 58 58 58 58 58 59 59 60 61 61 59 58 57 56 55 54 52 50 49 48 46 45 44 44 42 41 40 40 41 41 41 41 38 36 34 35 35 36 37 37 38 39 39 40 40 42 44 46 49 52 54 55 58 60 61 62 62 62 61 59 59 58 58 57 56 55 55 54 54 53 53 52 52 52 52 52 52 52 52 52 52 52 52 52 52 52 52 52 52 53 53 53 53 53 53 53 53 53 53 53
58 57 57 57 58 58 58 58 59 59 60 61 60 59 58 57 56 55 54 51 49 47 46 44 43 42 41 40 39 39 39 41 41 41 40 37 36 35 34 35 35 36 37 37 38 38 39 39 41 42 45 48 50 53 54 57 59 60 61 61 61 60 59 58 58 57 56 56 55 55 54 53 53 52 52 52 52 52 52 52 52 52 52 52 52 52 52 52 52 52 52 52 53 53 53 53 53 53 53 53 53 53 53
58 57 57 57 58 58 58 58 59 59 59 60 60 59 58 57 56 55 54 51 49 46 44 42 41 41 40 39 38 38 39 40 41 40 39 37 37 36 35 35 35 35 36 37 37 37 38 38 39 41 44 46 49 51 53 55 57 59 59 60 60 60 59 58 57 57 56 55 55 55 54 53 53 52 52 52 52 52 52 52 52 52 52 53 53 53 52 52 52 52 52 52 52 52 52 52 52 52 52 52 52 53 53
58 58 57 57 57 58 57 58 58 59 59 59 59 59 59 57 56 55 54 52 49 46 44 43 42 42 41 40 39 38 39 40 40 40 39 37 37 37 36 35 34 35 35 35 35 36 37 37 38 40 42 45 48 50 52 53 55 58 59 59 59 59 59 57 57 56 56 55 55 55 54 53 53 52 52 52 52 52 53 53 53 53 53 53 53 53 53 52 52 52 52 52 52 52 52 52 52 52 52 52 52 52 52
58 58 57 57 57 57 57 58 58 58 59 59 59 59 58 58 57 55 54 52 50 47 44 42 41 41 40 41 39 39 40 41 41 40 38 37 36 36 36 35 34 34 34 34 35 35 36 36 37 37 40 43 46 48 50 51 54 57 58 59 59 59 58 57 56 56 55 55 55 54 54 53 53 52 52 52 52 53 53 53 53 53 53 53 53 53 53 52 52 52 52 52 52 51 51 51 51 51 51 51 52 52 52
58 58 57 57 57 57 57 57 58 58 58 59 59 58 58 57 56 55 54 52 50 47 44 42 41 41 41 41 40 39 41 41 41 40 38 36 35 35 36 35 34 34 34 35 36 36 36 35 35 36 37 40 43 46 48 50 52 55 58 58 58 59 58 57 56 55 55 54 54 54 53 53 53 52 52 52 53 53 54 54 54 53 53 53 53 53 53 52 52 52 52 52 51 51 51 51 51 51 51 51 51 52 52
58 58 58 57 57 57 57 57 57 57 58 59 59 58 58 57 56 55 55 52 50 48 45 43 42 42 42 42 41 41 41 41 40 39 37 36 35 35 36 36 34 34 34 35 36 36 36 36 34 34 35 37 40 42 45 46 48 51 55 57 58 58 58 57 56 55 54 53 53 53 53 53 53 53 53 53 53 54 54 54 54 53 53 53 53 53 53 52 52 52 52 51 51 51 50 50 50 50 51 51 51 51 52
58 58 58 57 57 57 57 57 56 56 57 59 59 58 57 57 56 55 54 52 50 49 46 45 43 42 42 41 41 41 41 40 39 39 37 37 36 35 35 35 34 34 35 35 35 35 36 35 34 33 32 34 36 38 40 42 44 47 50 54 56 57 58 57 56 55 54 53 53 53 53 53 53 53 53 53 54 54 54 53 53 53 53 53 53 52 52 52 52 52 52 51 51 50 50 50 50 50 50 51 51 51 51
59 58 58 57 57 57 57 57 56 56 57 58 58 58 56 56 55 55 54 52 51 49 47 46 44 43 43 42 41 41 40 39 39 39 37 37 36 35 35 35 35 35 35 33 33 33 35 34 33 32 32 32 32 34 36 37 40 42 46 50 53 55 57 57 57 56 55 54 53 52 52 53 53 53 53 53 53 53 53 53 52 52 52 52 52 52 52 52 52 52 52 51 51 50 50 50 50 50 50 50 50 50 51
59 59 58 58 57 57 57 57 56 56 56 58 58 58 56 55 55 54 53 52 50 48 46 45 44 43 42 41 41 40 39 38 38 38 37 35 35 35 34 35 36 36 34 32 32 33 34 33 32 32 31 30 30 31 32 35 38 41 43 48 51 53 55 55 55 56 56 55 54 53 52 52 52 52 53 52 52 52 52 51 51 51 51 51 50 50 50 51 51 51 51 51 51 50 50 50 50 50 50 50 50 50 50
59 59 58 58 57 57 57 57 57 56 56 57 58 58 57 55 55 54 53 51 50 48 47 46 45 44 43 41 40 39 39 38 37 38 37 34 34 34 35 34 35 36 34 33 32 33 33 32 32 31 29 28 28 29 31 34 37 39 40 43 46 49 50 52 53 54 55 55 54 53 51 51 51 51 51 51 51 51 50 50 50 50 50 50 50 50 49 50 50 50 50 50 50 50 50 50 50 49 49 50 50 50 50
59 59 58 58 58 57 57 57 57 57 56 57 58 58 57 56 55 54 53 51 50 49 48 46 46 46 45 42 41 40 39 39 38 38 37 35 34 34 34 34 35 35 34 34 34 34 33 32 31 31 29 28 29 29 29 33 35 37 38 39 41 43 44 45 47 50 53 54 54 52 51 50 50 50 50 50 50 50 49 49 49 49 48 48 48 48 48 48 48 49 49 49 50 50 50 50 49 49 49 49 49 49 49
59 59 58 58 57 57 57 57 57 57 57 57 58 58 58 56 55 54 52 51 50 50 48 46 46 46 45 44 42 41 41 39 39 38 37 36 34 34 34 35 36 35 34 34 35 34 32 32 31 31 30 29 28 28 29 32 32 33 35 36 37 38 40 41 43 45 49 51 52 51 50 49 49 49 49 49 48 48 48 48 48 47 47 47 47 47 47 47 47 47 48 48 48 49 49 49 49 48 48 48 48 48 48
59 58 58 58 57 57 57 57 57 57 57 57 58 58 58 56 55 54 53 51 51 50 48 47 46 46 45 45 44 43 41 40 40 39 37 36 34 33 33 36 36 36 35 36 35 34 32 32 31 30 29 29 28 28 28 29 29 29 32 33 34 36 37 38 40 42 44 46 49 50 49 48 48 47 47 47 47 47 46 46 46 46 46 46 46 46 46 46 46 46 46 47 47 47 48 48 48 47 47 47 47 47 47
59 59 58 58 57 57 57 57 57 57 57 57 58 58 58 56 55 54 53 52 52 51 49 48 47 46 46 45 44 43 41 41 40 39 38 36 34 33 33 35 36 36 37 37 35 33 32 32 31 30 29 28 28 28 28 27 26 26 27 29 31 32 35 37 39 40 41 43 45 47 49 48 47 46 46 46 46 46 46 45 45 44 44 44 45 45 44 45 45 45 45 46 46 46 46 46 46 46 46 46 46 46 46
59 59 58 58 57 57 57 57 57 57 57 57 58 58 58 56 55 54 53 52 52 51 50 49 48 47 46 45 44 43 42 41 41 40 38 36 34 34 33 34 35 36 37 37 35 33 33 32 30 29 28 29 29 29 27 26 24 24 25 25 27 29 32 36 38 39 38 40 43 45 48 47 47 46 46 46 46 45 45 44 43 43 43 43 43 43 43 43 43 44 44 45 45 46 46 46 46 45 45 45 45 46 46
59 59 59 58 58 57 56 57 57 57 57 57 57 58 58 56 55 54 53 52 52 51 50 50 49 48 46 45 44 43 42 41 41 40 38 36 35 34 33 34 34 35 36 36 34 33 33 33 32 30 30 30 29 28 27 26 25 24 24 24 25 28 32 34 35 35 35 37 39 41 45 46 46 46 46 45 45 45 44 44 43 42 42 42 42 42 42 42 42 42 43 43 44 45 45 45 45 45 44 44 44 44 45
60 59 59 58 58 57 57 57 57 57 57 57 57 58 57 56 55 54 53 52 52 51 50 50 50 49 48 45 44 43 41 41 40 40 38 36 35 34 33 32 32 33 35 35 34 33 33 34 34 34 34 31 29 28 27 26 25 24 24 24 26 28 30 29 30 31 32 34 36 38 41 43 45 46 45 44 44 44 43 43 42 42 41 41 41 41 41 41 41 41 41 42 42 43 44 44 44 44 44 43 43 43 44
61 60 59 59 58 58 57 57 57 57 57 57 57 57 57 56 55 54 53 53 52 51 50 50 50 50 49 46 44 43 42 40 40 39 38 36 35 33 32 32 32 32 34 35 34 33 33 34 36 37 36 31 28 27 27 26 25 25 25 26 28 28 28 28 28 29 30 32 33 35 36 38 41 42 43 43 42 42 42 42 41 41 40 40 40 40 40 40 40 40 40 41 41 42 43 43 44 44 44 43 43 43 43
61 61 60 59 59 58 58 58 57 58 58 58 57 57 57 56 55 54 53 53 53 51 49 49 49 50 50 47 46 44 43 41 40 39 38 37 35 33 32 32 32 32 33 34 34 34 34 35 36 36 33 31 29 28 28 28 27 27 27 27 28 29 28 28 29 29 29 30 31 33 35 35 34 36 41 40 40 41 41 41 40 39 39 38 38 38 38 38 38 38 38 39 40 41 41 42 43 43 43 43 43 43 43
61 61 61 60 59 59 58 58 58 58 59 58 58 57 56 55 55 54 53 53 53 52 49 48 48 49 50 49 47 45 44 42 41 40 39 37 35 34 34 32 32 32 32 33 33 34 35 37 36 34 32 31 30 29 29 32 31 29 28 27 28 29 28 29 29 29 28 29 30 33 37 35 31 28 32 32 34 37 39 40 40 39 38 38 37 37 37 37 37 37 37 38 39 40 41 41 42 42 43 43 43 44 44
62 61 61 60 60 59 58 58 58 59 59 58 57 56 55 55 55 54 53 52 52 51 50 48 47 47 48 49 48 46 44 43 41 39 38 37 36 35 37 33 32 32 32 32 32 34 35 35 34 33 32 32 30 30 30 32 32 30 28 27 28 28 28 29 29 28 27 29 30 32 33 31 27 25 27 27 28 31 33 37 39 40 39 38 37 37 37 37 37 37 37 37 38 39 40 40 41 41 42 42 43 43 43
62 61 61 61 60 59 59 58 59 59 59 58 57 56 55 55 54 53 53 52 52 51 51 50 48 46 47 46 46 44 44 43 40 37 37 37 35 34 35 33 32 31 31 31 32 33 35 33 32 32 32 31 30 30 30 31 31 30 28 28 27 27 28 28 28 27 27 29 30 30 28 27 25 24 25 25 25 26 29 32 36 38 40 39 38 37 37 37 36 36 37 37 37 38 39 39 40 41 41 41 42 42 43
62 62 61 61 60 59 59 58 59 59 59 58 57 56 55 55 54 53 53 52 52 51 51 51 49 47 46 45 44 43 43 41 39 38 39 37 35 33 33 32 31 31 31 31 32 33 34 32 32 32 32 30 29 30 30 30 30 29 28 28 27 26 26 27 27 27 28 28 28 28 27 25 24 23 23 23 23 23 25 28 30 34 38 38 38 38 37 36 36 36 36 37 37 37 38 39 39 40 40 41 41 42 42
62 62 61 61 60 60 59 58 58 59 59 58 57 56 56 55 55 54 53 52 51 51 51 51 50 47 46 45 44 43 41 40 39 38 39 38 37 35 32 32 31 30 30 31 32 32 32 31 31 31 30 30 30 30 30 30 30 30 29 28 27 26 25 25 26 26 27 27 27 28 28 26 24 23 23 22 22 22 23 24 27 30 34 36 37 37 37 37 37 37 37 37 37 37 37 37 38 38 39 40 41 41 42
62 62 61 61 60 60 59 58 58 59 59 58 57 57 56 55 55 54 52 51 50 50 51 51 50 48 47 46 45 43 41 40 39 39 41 41 40 38 36 32 31 29 28 29 30 31 31 30 29 29 30 30 30 30 30 30 30 30 29 28 27 26 25 26 26 26 26 25 26 27 28 26 25 24 23 22 22 22 22 22 23 26 28 29 30 32 36 37 38 39 38 37 37 37 37 37 37 38 40 41 42 42 43
62 62 61 61 60 60 59 59 58 58 58 58 57 56 56 55 55 54 52 51 50 50 50 50 49 48 48 48 46 44 41 40 40 40 42 43 43 42 41 35 32 29 28 27 28 30 31 29 29 29 29 28 29 29 29 29 29 29 29 29 28 26 26 27 27 26 25 24 24 25 27 26 26 25 24 23 22 22 22 22 22 23 24 24 26 29 34 39 41 41 40 39 38 37 36 37 38 40 42 43 44 44 45
62 62 62 61 61 60 60 59 59 58 58 57 57 56 56 56 55 54 53 51 50 50 50 50 49 47 47 48 47 45 41 40 40 41 44 45 44 42 41 37 33 31 30 28 27 28 29 28 27 28 28 28 28 29 28 28 28 29 30 29 28 27 26 27 27 26 25 23 23 24 25 26 26 27 25 24 23 23 23 23 22 22 22 23 24 28 32 38 43 45 43 42 41 39 38 39 41 42 44 45 45 46 46
62 62 62 61 61 61 60 60 59 59 58 57 57 56 56 56 55 54 53 51 50 50 50 50 49 48 46 47 46 44 40 41 40 40 43 46 46 42 38 37 36 37 36 32 29 28 28 27 26 26 28 29 29 29 29 28 28 28 30 29 28 28 27 27 27 26 25 23 23 23 24 25 26 27 26 24 23 23 23 23 23 22 22 23 23 26 32 36 42 46 45 44 44 43 41 41 42 43 44 44 45 45 45
61 61 62 61 61 61 60 60 59 59 58 58 57 57 56 56 55 54 53 51 50 50 50 50 49 48 47 47 46 44 40 40 39 40 41 46 46 43 39 37 37 37 34 32 30 31 31 28 26 26 28 28 28 28 28 28 28 28 30 29 28 28 27 27 26 25 25 24 24 24 24 25 26 27 26 25 24 23 23 23 22 22 22 23 26 29 35 38 41 41 40 41 42 43 42 41 41 41 42 42 42 43 43
61 61 61 61 61 61 61 60 60 59 59 58 57 56 56 56 55 55 53 52 51 50 50 49 49 48 48 48 47 45 42 39 38 39 41 42 45 45 42 40 38 36 33 32 31 32 35 29 26 26 27 28 28 27 27 27 27 28 29 29 28 28 27 26 26 25 25 24 24 24 25 26 26 25 25 25 24 23 24 23 22 22 23 25 27 30 32 33 35 36 37 38 39 41 40 40 40 40 40 40 40 41 41
61 61 61 61 61 61 61 61 60 59 58 58 57 56 56 56 55 55 53 52 51 50 50 49 49 49 49 49 48 46 44 41 40 40 41 42 43 43 41 41 40 39 36 35 35 35 35 31 27 26 27 28 28 27 27 28 28 28 28 28 28 28 27 26 26 25 25 25 24 24 25 26 26 26 26 25 24 23 23 23 23 23 25 26 28 28 30 31 33 34 35 37 37 37 38 38 38 38 38 38 38 38 39
61 61 61 61 61 61 61 61 60 59 58 57 57 56 56 55 55 54 53 52 51 50 50 50 49 49 50 50 50 49 46 44 41 40 41 42 42 41 39 39 39 38 36 36 35 34 31 29 28 28 28 26 28 29 29 28 27 27 28 28 27 27 27 26 25 25 25 24 24 24 24 25 26 26 26 26 24 23 24 24 24 25 27 28 28 28 30 32 34 35 34 36 36 36 37 37 37 37 37 37 37 37 38
60 60 60 60 61 61 61 61 60 59 58 57 56 56 55 55 55 54 53 51 51 50 50 50 49 50 50 51 51 50 49 46 43 41 39 40 41 40 39 37 36 35 33 34 33 32 31 29 29 30 32 25 25 28 32 29 27 27 27 27 27 27 27 26 25 25 24 24 24 24 23 24 25 26 25 25 25 24 24 26 26 27 29 28 28 28 32 35 37 36 36 36 36 36 36 36 36 36 36 36 37 37 38
60 60 60 60 60 61 61 61 60 59 58 57 56 55 55 55 55 54 53 52 51 51 50 50 50 51 52 52 52 51 50 49 46 43 39 39 39 39 39 37 35 34 33 32 32 31 32 31 32 33 35 31 28 27 28 29 28 27 27 27 26 26 26 25 25 25 25 24 24 24 23 23 24 25 24 24 25 25 26 28 28 29 30 28 28 28 30 30 32 34 35 36 36 36 35 35 35 35 36 36 37 37 38
60 60 60 60 60 60 61 61 60 60 59 57 55 55 55 55 55 54 53 52 51 51 50 51 52 53 54 53 52 52 52 52 50 45 41 40 40 40 39 37 36 35 33 32 31 30 30 31 33 35 37 37 35 31 27 27 27 27 27 27 26 26 25 25 25 25 25 24 24 23 23 23 23 23 23 24 25 25 26 27 28 29 28 27 26 26 27 27 29 31 33 34 35 35 35 34 34 35 35 36 37 37 38